Regional Weather Roundup
Issued by NWS

Home | Current Version | Previous Version | Text Only | Print | Product List | Glossary On
Versions: 1 2 3 4 5 6 7 8 9 10 11 12 13 14 15 16 17 18 19 20 21 22 23 24 25 26 27 28 29 30 31 32 33 34 35 36 37 38 39 40 41 42 43 44 45 46 47 48 49 50
000
ASUS45 KREV 210810
RWRNV
NEVADA REGIONAL WEATHER ROUNDUP
NATIONAL WEATHER SERVICE RENO NV
1200 AM PST TUE FEB 21 2017

NOTE: "FAIR" INDICATES FEW OR NO CLOUDS BELOW 12,000 FEET WITH NO
SIGNIFICANT WEATHER AND/OR OBSTRUCTIONS TO VISIBILITY.

NVZ001-003-004-210900-
WESTERN NEVADA

CITY           SKY/WX    TMP DP  RH WIND       PRES   REMARKS
RENO           LGT RAIN  42  38  85 SW9       29.92R
CARSON CITY    LGT RAIN  41  37  87 S12G22    29.94R
MINDEN         LGT RAIN  41  37  87 S20G30    29.95R
PYRAMID LAKE     N/A     43 N/A N/A S20         N/A
FALLON         MOCLDY    47  34  60 S15       29.91R
LOVELOCK       CLOUDY    38  37  97 E3        29.90R
HAWTHORNE      CLOUDY    50  27  40 S32G40    29.94R
$$

NVZ002-CAZ072-073-210900-
NORTHERN AND CENTRAL SIERRA

CITY           SKY/WX    TMP DP  RH WIND       PRES   REMARKS
S. LAKE TAHOE  LGT SNOW  35  32  88 SW16G29   29.92R FOG
TRUCKEE        LGT RAIN  36  32  87 SW20G38   29.92R
SQUAW VLY 8000   N/A     32  32 100 SW23        N/A
SUSANVILLE     CLOUDY    41  36  81 SW7       29.82R HAZE
BLUE CANYON    HVY RAIN  37  37 100 S26G49    29.95  VSB 3/4
MAMMOTH LAKES  LGT SNOW  33  30  88 E17       30.08F
BRIDGEPORT     LGT SNOW  36  29  75 SW20G31   29.94R
$$

NVZ030-031-036-210900-
NORTHERN NEVADA

CITY           SKY/WX    TMP DP  RH WIND       PRES   REMARKS
ELKO           CLOUDY    44  35  70 SW7       29.92R
WINNEMUCCA     CLOUDY    40  38  93 VRB5      29.85R
WENDOVER       CLEAR     52  34  50 SW24      29.95F
$$

NVZ035-037-210900-
CENTRAL NEVADA

CITY           SKY/WX    TMP DP  RH WIND       PRES   REMARKS
ELY            CLEAR     45  33  63 S26G38    30.07F
EUREKA           N/A     44  30  57 S23G32    30.00S
$$

NVZ013-014-210900-
SOUTH CENTRAL NEVADA

CITY           SKY/WX    TMP DP  RH WIND       PRES   REMARKS
TONOPAH        CLEAR     41  38  89 S15       30.12R
$$

NVZ017-020-022-210900-
SOUTHERN NEVADA

CITY           SKY/WX    TMP DP  RH WIND       PRES   REMARKS
LAS VEGAS      PTCLDY    60  45  57 S12       30.18F
N. LAS VEGAS   PTCLDY    56  49  77 SE14      30.19S
NELLIS AFB     CLEAR     61  47  60 SE13      30.19S
HENDERSON      CLEAR     55  47  74 S12       30.24R
MERCURY        CLEAR     57  42  57 SW20G29   30.18S
$$



USA.gov is the U.S. government's official web portal to all federal, state and local government web resources and services.